Showing default

COSMOS 2582, 62903

Orbit data source: Space-Track

COSMOS 2582, 62903 is a payload satellite owned by MO RF (CIS) in LEO that was launched on Wed, 05 Feb 2025 UTC via a SOYUZ-2-1V launch vehicle from the Plesetsk Missile And Space Complex (PKMTR). Payload-class satellites include a variety of spacecraft equipped with specific instruments for various scientific and technological missions. These include communications satellites like Starlink; space stations such as the ISS; scientific satellites like the Hubble; Earth observation satellites from companies like Planet Labs, Umbra, and HawkEye 360; GPS; miniature CubeSats for education and research; and military/defense satellites.

Loading next visibility...
Identifier
62903, 2025-026B
Orbit
LEO
Last TLE update
10 hours ago
Origin
Manufacturer
VNIIEM
Mission
Operational Defense Imaging
Bus & Motor
EMKA, Unknown motor
Mass
~500 kg wet, 500 kg dry
Launch date (UTC)
2025-02-05 (3 months ago)
Launch vehicle
SOYUZ-2-1V
Launch site
Plesetsk Missile And Space Complex (PKMTR)
Object type
Payload
Rocket body
Debris
Shape & HBR
Cyl + 2 Pan, 3 m
Radar Cross Section
3.727 m², Large (>1 m²)

Expand to show TLE details & history

TLE from 10 hours ago
0 COSMOS 2582
1 62903U 25026B   25128.96085040  .00001744  00000-0  16317-3 0  9992
2 62903  81.9939 126.4544 0009439 320.9612  39.0925 14.93563601 13847
Epoch: 2025-05-08T23:03Z
Definitive object data (Epoch: 2025-05-08T23:03:37.474Z)
Latitude
-0°
Longitude
-86.47559°
Altitude
584.77 km
Speed
7.571 km/s
True Right ascension
08h 25m 49s
True Declination
0° 00' 00"
Sunlit
Object was in daylight at TLE epoch
Visualization TLE readout
Latitude
52.9341°
Longitude
-76.22289°
Altitude
595.938 km
Speed
7.567 km/s
Apparent Right ascension
06h 56m 24s
Apparent Declination
10° 33' 37"
Sunlit
Object is in daylight
Visualization observer readout
Local Sidereal Time
17:06:01
Azimuth
326.937° NNW
Elevation
-33.409°
Doppler factor
1
Orbital elements
Apogee altitude
590.434 km
Perigee altitude
577.291 km
Semi-major axis
6,961.999 km
Eccentricity
0.0009439
Inclination
81.9939°
RAAN
126.4544°
Arg. of periapsis
320.9612°
True anomaly
39.16077°
Mean anomaly
39.0925°
Eccentric anomaly
39.12663°
Mean motion
3.7363 °/min
BSTAR
0.00016317
Orbital period
96.35 mins
Loading maneuver chart data...
Loading SW <> Apogee altitude chart data...
Loading historical data...
Loading historical data...
Loading historical data...
Loading historical data...
Loading historical data...
Loading historical data...
Loading historical data...

COSMOS 2582 Visibility forecast

Observer location: undefined°, undefined°

Span
Click to sort rows by Start time (UTC) header in descending order
Start Az.
Max El. time (UTC)
Max El. Az.
Max El.
End time (UTC)
End Az.
6 mins2025-05-09 10:52:46.654Z23.796° NE2025-05-09 10:55:46.654Z73.682° E21.561°2025-05-09 10:58:46.654Z123.838° SE
5 mins2025-05-09 12:30:46.654Z312.562° NW2025-05-09 12:32:46.654Z274.412° WNW23.313°2025-05-09 12:35:46.654Z220° SW
6 mins2025-05-10 00:55:46.654Z215.352° SW2025-05-10 00:57:46.654Z262.225° W36.379°2025-05-10 01:01:46.654Z355.112° N
|